Location: Feydey
(46.3431°N, 7.0106°E)
Time: 23:30:39
(UTC+00:00)

NOSS 3-1 (C) - Pass Details

Date: 20 June 2021
Orbit: 724 x 1485 km, 63.4° (Epoch: 20 July)

Event Time Altitude Azimuth Distance (km) Brightness Sun altitude
Exits shadow 23:46:47 29° 226° (SW) 1,441 4.0 -20.2°
Maximum altitude 23:49:39 80° 310° (NW) 880 3.3 -20.1°
Drops below altitude 10° 23:55:59 10° 38° (NE) 2,752 6.7 -20.0°
Sets 23:58:49 0° 40° (NE) 3,827 7.5 -20.0°
